Location: Canet
(43.3261°N, 5.3723°E)
Time: 18:57:12
(UTC+00:00)

Cosmos 1602 Rocket - Pass Details

Date: 24 January 2021
Orbit: 604 x 633 km, 82.5° (Epoch: 08 March)

Event Time Altitude Azimuth Distance (km) Brightness Sun altitude
Rises 17:55:18 0° 179° (S) 2,850 7.1 -13.7°
Reaches altitude 10° 17:57:31 10° 176° (S) 1,954 6.2 -14.1°
Maximum altitude 18:01:47 65° 96° (E) 677 3.5 -14.9°
Drops below altitude 10° 18:06:08 10° 14° (NNE) 1,986 5.9 -15.7°
Sets 18:08:24 0° 12° (NNE) 2,901 6.8 -16.1°
